SL-8 DEB, 21251

Orbit data source: Space-Track

SL-8 DEB, 21251 is space debris in LEO originally from a launch on Tue, 12 Feb 1991 UTC launched from the Plesetsk Missile And Space Complex (PKMTR). Debris objects in space refer to the collection of defunct objects orbiting the Earth. Examples of debris include non-operational satellites, rocket bodies, and fragments generated from explosions, collisions, or faulty payload assembly.

Loading next visibility...
Identifier
21251, 1991-009BJ
Orbit
LEO
Country
Flag of CISCIS
Related business
Manufacturer
Unknown
Mission
Spacecraft
Bus & Motor
Unknown
Mass
Unknown
Launch date (UTC)
1991-02-12 (35 years ago)
Launch vehicle
Unknown
Launch site
Plesetsk Missile And Space Complex (PKMTR)
Object type
Payload
Rocket body
Debris
Shape & HBR
Unknown shape, 0.1 m
Radar Cross Section
Medium (>0.1 m² and <1 m²)

Expand to show TLE details & history
Last TLE update: 2 days ago

TLE from 2 days ago
0 SL-8 DEB
1 21251U 91009BJ  26171.42379582  .00000075  00000-0  68167-3 0  9990
2 21251  73.9552 337.6632 0148408 181.6424 204.2649 12.36347033591717
Epoch: 2026-06-20T10:10Z
TLE epoch observation values (Epoch: 2026-06-20T10:10:15.958Z)
Latitude
24.20044°
Longitude
-76.15145°
Altitude
1,631.734 km
Speed
7.01 km/s
True Right ascension
23h 00m 12s
True Declination
24° 05' 10"
Sunlit
Object was in daylight at epoch
Visualization orbit readout
Latitude
Unknown
Longitude
Unknown
Altitude
Unknown
Speed
Unknown
Apparent Right ascension
Unknown
Apparent Declination
Unknown
Sunlit
N/A
Visualization observer readout
Local Sidereal Time
03:48:35
Azimuth
Unknown
Elevation
Unknown
Doppler factor
Unknown
Orbital elements
Apogee altitude
1,637.197 km
Perigee altitude
1,402.768 km
Semi-major axis
7,898.12 km
Eccentricity
0.01484
Inclination
73.9552°
RAAN
337.6632°
Arg. of periapsis
181.6424°
True anomaly
203.57766°
Mean anomaly
204.2649°
Eccentric anomaly
203.92013°
Mean motion
3.09213 °/min
Orbital period
116.42 mins
BSTAR
0.00068167
Loading maneuver chart data...
Computing Atmospheric mass density...
Loading historical data...
Loading historical data...
Loading historical data...
Loading historical data...
Loading historical data...
Loading historical data...
Loading historical data...

Documentation

Showing up to 5 results
|